Location: Hohe Wand Kleine Kanzel
(47.8330°N, 16.0170°E)
Time: 05:25:27
(UTC+02:00)

Explorer 7 - All Passes

Search period start: 06 August 2021 00:00
Search period end: 16 August 2021 00:00
Orbit: 484 x 676 km, 50.3° (Epoch: 05 August)

Date Brightness Start Highest point End Pass type
(mag) Time Alt. Az. Time Alt. Az. Time Alt. Az.
06 Aug - 04:19:16 10° SW 04:22:51 44° SSE 04:26:32 10° ENE visible
06 Aug - 05:59:26 10° W 06:03:13 67° N 06:07:10 10° ENE daylight
06 Aug - 07:40:03 10° WNW 07:43:55 66° N 07:48:01 10° E daylight
06 Aug - 09:20:29 10° WNW 09:24:24 52° SSW 09:28:32 10° SE daylight
06 Aug - 11:02:18 10° WSW 11:04:16 13° SW 11:06:16 10° SSW daylight
07 Aug - 02:45:06 10° S 02:47:15 15° SE 02:49:24 10° E visible
07 Aug - 04:23:23 10° SW 04:27:06 64° SSE 04:30:55 10° ENE visible
07 Aug - 06:03:50 10° W 06:07:36 60° N 06:11:32 10° ENE daylight
07 Aug - 07:44:23 10° WNW 07:48:18 76° NNE 07:52:25 10° ESE daylight
07 Aug - 09:24:54 10° W 09:28:37 37° SSW 09:32:32 10° SE daylight
08 Aug - 02:48:23 10° SSW 02:51:20 22° SE 02:54:19 10° E visible
08 Aug - 04:27:38 10° WSW 04:31:22 85° SSE 04:35:15 10° ENE visible
08 Aug - 06:08:13 10° W 06:11:59 58° N 06:15:55 10° E daylight
08 Aug - 07:48:43 10° WNW 07:52:37 87° SSW 07:56:45 10° ESE daylight
08 Aug - 09:29:26 10° W 09:32:47 25° SW 09:36:16 10° SSE daylight
09 Aug - 02:52:05 10° SSW 02:55:28 33° SE 02:58:54 10° E visible
09 Aug - 04:31:56 10° WSW 04:35:42 76° NNW 04:39:34 10° ENE visible
09 Aug - 06:12:36 10° WNW 06:16:23 60° N 06:20:19 10° E daylight
09 Aug - 07:53:02 10° WNW 07:56:55 66° SSW 08:01:00 10° ESE daylight
09 Aug - 09:34:13 10° W 09:36:54 17° SW 09:39:40 10° S daylight
10 Aug - 01:19:29 10° SE 01:19:58 10° SE 01:20:27 10° SE visible
10 Aug - 02:56:04 10° SW 02:59:40 48° SSE 03:03:20 10° ENE visible
10 Aug - 04:36:19 10° W 04:40:04 65° N 04:43:55 10° ENE visible
10 Aug - 06:16:58 10° WNW 06:20:45 67° N 06:24:43 10° E daylight
10 Aug - 07:57:24 10° WNW 08:01:10 47° SSW 08:05:07 10° SE daylight
10 Aug - 09:39:49 10° WSW 09:40:57 11° SW 09:42:07 10° SSW daylight
11 Aug - 01:21:37 10° S 01:24:01 16° SE 01:26:25 10° E visible
11 Aug - 03:00:12 10° WSW 03:03:55 69° SSE 03:07:41 10° ENE visible
11 Aug - 04:40:44 10° W 04:44:27 59° N 04:48:16 10° ENE visible
11 Aug - 06:21:17 10° WNW 06:25:06 80° NNE 06:29:06 10° ESE daylight
11 Aug - 08:01:50 10° W 08:05:22 33° SW 08:09:03 10° SSE daylight
12 Aug - 01:25:01 10° SSW 01:28:07 24° SE 01:31:12 10° E visible
12 Aug - 03:04:28 10° WSW 03:08:13 90° NNW 03:12:01 10° ENE visible
12 Aug - 04:45:07 10° W 04:48:50 58° N 04:52:40 10° E visible
12 Aug - 06:25:37 10° WNW 06:29:26 82° SSW 06:33:25 10° ESE daylight
12 Aug - 08:06:26 10° W 08:09:31 22° SW 08:12:44 10° SSE daylight
13 Aug - 01:28:48 10° SW 01:32:16 36° SSE 01:35:45 10° E visible
13 Aug - 03:08:48 10° W 03:12:33 73° NNW 03:16:21 10° ENE visible
13 Aug - 04:49:29 10° WNW 04:53:13 61° N 04:57:04 10° E visible
13 Aug - 06:29:56 10° WNW 06:33:42 60° SSW 06:37:38 10° SE daylight
13 Aug - 08:11:21 10° WSW 08:13:37 15° SW 08:15:56 10° S daylight
13 Aug - 23:55:19 10° SSE 23:56:43 12° SE 23:58:05 10° ESE night (unlit)
14 Aug - 01:32:48 10° SW 01:36:30 53° SSE 01:40:09 10° ENE visible
14 Aug - 03:13:11 10° W 03:16:55 63° N 03:20:41 10° ENE visible
14 Aug - 04:53:50 10° WNW 04:57:35 69° NNE 05:01:28 10° E visible
14 Aug - 06:34:19 10° WNW 06:37:57 42° SSW 06:41:43 10° SE daylight
14 Aug - 23:58:06 10° S 00:00:47 18° SE 00:03:25 10° E night (unlit)
15 Aug - 01:36:58 10° WSW 01:40:45 74° SSE 01:44:30 10° ENE visible
15 Aug - 03:17:35 10° W 03:21:18 58° N 03:25:03 10° ENE visible
15 Aug - 04:58:09 10° WNW 05:01:56 83° NNE 05:05:49 10° ESE visible
15 Aug - 06:38:47 10° W 06:42:08 29° SW 06:45:36 10° SSE daylight
